Flag for Uzbekistan Weather past 2 weeks in Tashkent, Uzbekistan

Now
63 °F

Partly cloudy.


Feels Like: 63 °F
Forecast: 57 / 63 °F
Wind: 6 mph from North

Location: Tashkent


UV Index: 5 (Moderate)

Visibility: N/A


Pressure: 29.83 "Hg

Humidity: 77%

Dew point: 55 °F

Location of TashkentLocation

Historic Weather in Tashkent

°F

Tashkent temperature yesterday

Maximum temperature yesterday: 88 °F (at 2:30 PM)
Minimum temperature yesterday: 55 °F (at 12:00 AM)
Average temperature yesterday: 70 °F

Past Weeks' High & Low Weather Summary

 TemperatureHumidityPressure
High88 °F (Apr 24, 2:30 PM)100% (Apr 11, 2:00 AM)30.39 "Hg (Apr 11, 2:00 AM)
Low34 °F (Apr 14, 3:30 AM)12% (Apr 22, 12:00 PM)29.62 "Hg (Apr 24, 2:30 PM)
Average60 °F49%30.06 "Hg
* Reported Apr 10 2:00 AM — Apr 25 2:30 AM, Tashkent, Weather by CustomWeather, © 2014

Note: Actual official high and low records may vary slightly from our data, if they occured in-between our weather recording intervals... More about our weather records

Advertising

Historic Weather Conditions — Data for Previous 24 hours

 ConditionsComfort  
Time TempWeatherWind HumidityBarometerVisibility
2:30 AM
Apr 25
63 °FPartly cloudy.3 mph83%29.83 "HgN/A
2:00 AM63 °FPartly cloudy.1 mph77%29.83 "HgN/A
1:30 AM63 °FPartly cloudy.1 mph77%29.83 "HgN/A
1:00 AM64 °FPartly cloudy.3 mph73%29.83 "HgN/A
12:30 AM64 °FPartly cloudy.6 mph73%29.86 "HgN/A
12:00 AM64 °FPartly cloudy.3 mph73%29.86 "HgN/A
11:30 PM
Apr 24
64 °FMostly cloudy.8 mph73%29.83 "HgN/A
11:00 PM64 °FOvercast.6 mph73%29.83 "HgN/A
10:30 PM64 °FSprinkles. Overcast.3 mph78%29.83 "HgN/A
10:00 PM64 °FSprinkles. Overcast.3 mph73%29.83 "HgN/A
9:30 PM66 °FOvercast.6 mph64%29.83 "HgN/A
9:00 PM66 °FSprinkles. Overcast.No wind64%29.83 "HgN/A
8:30 PM66 °FSprinkles. Overcast.6 mph64%29.80 "HgN/A
8:00 PM68 °FSprinkles. Overcast.10 mph60%29.77 "HgN/A
7:30 PM72 °FMostly cloudy.17 mph47%29.77 "HgN/A
7:00 PM73 °FMostly cloudy.10 mph44%29.71 "HgN/A
6:30 PM73 °FMostly cloudy.20 mph41%29.68 "HgN/A
6:00 PM75 °FMostly cloudy.17 mph39%29.68 "Hg4 mi
5:30 PM77 °FMostly cloudy.20 mph32%29.68 "Hg4 mi
5:00 PM81 °FMore clouds than sun.15 mph23%29.68 "Hg4 mi
4:30 PM82 °FMore clouds than sun.6 mph21%29.65 "HgN/A
4:00 PM82 °FMore clouds than sun.8 mph23%29.62 "HgN/A
3:30 PM84 °FMore clouds than sun.8 mph23%29.62 "HgN/A
3:00 PM86 °FPassing clouds.6 mph19%29.62 "HgN/A
2:30 PM88 °FPassing clouds.6 mph19%29.62 "HgN/A
2:00 PM86 °FPassing clouds.6 mph22%29.65 "HgN/A
1:30 PM86 °FPassing clouds.6 mph20%29.65 "HgN/A
1:00 PM86 °FPassing clouds.6 mph19%29.65 "HgN/A
12:00 PM86 °FPassing clouds.8 mph20%29.68 "HgN/A
11:30 AM84 °FPassing clouds.8 mph22%29.71 "HgN/A
11:00 AM82 °FPassing clouds.3 mph23%29.71 "HgN/A
10:30 AM82 °FSunny.1 mph21%29.74 "Hg10 mi
10:00 AM79 °FPassing clouds.3 mph21%29.74 "HgN/A
9:30 AM77 °FPassing clouds.6 mph26%29.77 "HgN/A
9:00 AM75 °FPassing clouds.6 mph25%29.77 "HgN/A
8:30 AM72 °FSunny.8 mph27%29.77 "Hg10 mi
8:00 AM70 °FSunny.6 mph27%29.77 "Hg10 mi
7:30 AM64 °FPassing clouds.6 mph37%29.80 "HgN/A
7:00 AM61 °FSunny.1 mph45%29.80 "Hg10 mi
6:30 AM57 °FPassing clouds.3 mph55%29.80 "HgN/A
6:00 AM57 °FPassing clouds.3 mph51%29.80 "HgN/A
5:30 AM57 °FPassing clouds.3 mph51%29.80 "HgN/A
5:00 AM57 °FPassing clouds.3 mph51%29.80 "HgN/A
4:30 AM59 °FPassing clouds.3 mph45%29.80 "HgN/A
4:00 AM57 °FClear.1 mph44%29.80 "Hg10 mi
Weather by CustomWeather, © 2014

See weather overview